Decatur, IL

1:09 AM CST on January 20, 2017 (GMT -0600)
Decatur

Weather History for KDEC - October, 2013

Change the Weather History Date:

Sunday, October 13, 2013

  Actual Average Record
Temperature  
Mean Temperature 56 °F 55 °F  
Max Temperature 71 °F 67 °F 82 °F (1996)
Min Temperature 41 °F 43 °F 30 °F (2002)
Degree Days  
Heating Degree Days 9 10  
Month to date heating degree days 42 112  
Since 1 July heating degree days 95 185  
Cooling Degree Days 0 1  
Month to date cooling degree days 40 14  
Year to date cooling degree days 1079 1043  
Growing Degree Days 8 (Base 50)    
Moisture  
Dew Point 36 °F    
Average Humidity 48    
Maximum Humidity 73    
Minimum Humidity 22    
Precipitation  
Precipitation 0.00 in 0.10 in 1.31 in (2014)
Month to date precipitation 1.36 1.28  
Year to date precipitation 28.32 30.48  
Sea Level Pressure  
Sea Level Pressure 30.33 in    
Wind  
Wind Speed 5 mph (North)    
Max Wind Speed 13 mph    
Max Gust Speed 16 mph    
Visibility 10 miles    
Events      
T = Trace of Precipitation, MM = Missing Value Source: NWS Daily Summary

Daily Weather History Graph

Daily Weather History Graph

Search for Another Location

Airport or City:

Trip Planner

Search our weather history database for the weather conditions in past years. The results will help you decide how hot, cold, wet, or windy it might be!

Date:

Astronomy

Oct. 13, 2013 Rise Set
Actual Time 7:03 AM CDT 6:18 PM CDT
Civil Twilight 6:36 AM CDT 6:45 PM CDT
Nautical Twilight 6:05 AM CDT 7:17 PM CDT
Astronomical Twilight 5:34 AM CDT 7:48 PM CDT
Moon 3:09 PM CDT (10/13) 1:14 AM CDT (10/13)
Length of Visible Light 12h 08m
Length of Day
11h 14m
Waxing Gibbous, 69% of the Moon is Illuminated
Oct 13
Waxing Gibbous
Oct 18
Full
Oct 26
Last Quarter
Nov 3
New
Nov 9
First Quarter

Hourly Weather History & Observations

Time (CDT) Temp. Windchill Dew Point Humidity Pressure Visibility Wind Dir Wind Speed Gust Speed Precip Events Conditions
12:54 AM 52.0 °F - 41.0 °F 66% 30.22 in 10.0 mi North 5.8 mph - N/A   Clear
1:54 AM 51.1 °F - 41.0 °F 68% 30.24 in 10.0 mi Calm Calm - N/A   Clear
2:54 AM 51.1 °F - 39.9 °F 66% 30.26 in 10.0 mi NNW 6.9 mph - N/A   Clear
3:54 AM 51.1 °F - 39.9 °F 66% 30.27 in 10.0 mi North 9.2 mph - N/A   Clear
4:54 AM 48.9 °F - 39.0 °F 69% 30.28 in 10.0 mi North 6.9 mph - N/A   Clear
5:54 AM 48.9 °F - 37.9 °F 66% 30.31 in 10.0 mi North 3.5 mph - N/A   Clear
6:54 AM 46.0 °F - 37.9 °F 73% 30.34 in 10.0 mi Calm Calm - N/A   Clear
7:54 AM 48.9 °F - 39.9 °F 71% 30.35 in 10.0 mi North 5.8 mph - N/A   Clear
8:54 AM 55.9 °F - 41.0 °F 57% 30.37 in 10.0 mi NNW 3.5 mph - N/A   Clear
9:54 AM 62.1 °F - 41.0 °F 46% 30.38 in 10.0 mi Calm Calm - N/A   Clear
10:54 AM 64.9 °F - 39.0 °F 39% 30.39 in 10.0 mi North 8.1 mph - N/A   Clear
11:54 AM 68.0 °F - 34.0 °F 28% 30.38 in 10.0 mi ENE 5.8 mph - N/A   Clear
12:54 PM 69.1 °F - 30.9 °F 24% 30.36 in 10.0 mi Variable 4.6 mph - N/A   Clear
1:54 PM 70.0 °F - 30.9 °F 24% 30.34 in 10.0 mi North 5.8 mph - N/A   Clear
2:54 PM 71.1 °F - 30.0 °F 22% 30.34 in 10.0 mi NNW 8.1 mph - N/A   Clear
3:54 PM 70.0 °F - 28.9 °F 22% 30.33 in 10.0 mi NW 6.9 mph - N/A   Clear
4:54 PM 68.0 °F - 30.9 °F 25% 30.32 in 10.0 mi NNE 8.1 mph - N/A   Clear
5:54 PM 62.1 °F - 35.1 °F 37% 30.32 in 10.0 mi North 6.9 mph - N/A   Clear
6:54 PM 55.9 °F - 34.0 °F 44% 30.34 in 10.0 mi North 8.1 mph - N/A   Clear
7:54 PM 52.0 °F - 34.0 °F 50% 30.35 in 10.0 mi NNE 8.1 mph - N/A   Clear
8:54 PM 50.0 °F - 34.0 °F 54% 30.37 in 10.0 mi NNE 4.6 mph - N/A   Clear
9:54 PM 46.9 °F - 34.0 °F 61% 30.39 in 10.0 mi North 6.9 mph - N/A   Clear
10:54 PM 44.1 °F 39.5 °F 34.0 °F 68% 30.37 in 10.0 mi NNE 8.1 mph - N/A   Clear
11:54 PM 41.0 °F 38.0 °F 34.0 °F 76% 30.37 in 10.0 mi NE 4.6 mph - N/A   Clear